Hourly Data Report for October 01, 2016

All times are specified in Local Standard Time (LST). Add 1 hour to adjust for Daylight Saving Time where and when it is observed.

PETAWAWA AWOS 2
ONTARIO

45°57'00.000" N
77°19'00.000" W
130.10 m
6106396
71625
YWA

Download Data

Hourly Data (October 2016)
Hourly Data Report for October 1, 2016
Temp Definition
°C
Dew Point Temp Definition
°C
Rel Hum Definition
%
Wind Dir Definition
10's deg

Wind Spd Definition
km/h
Visibility Definition
km
Stn Press Definition
kPa
Hmdx Definition


Wind Chill Definition


Weather Definition


TIME
00:00 13.1 10.3 83 9 7 14.5 101.17     LegendNANA
01:00 13.8 9.4 75 10 6 14.5 101.15     LegendNANA
02:00 13.2 9.2 77 10 7 14.5 101.10     LegendNANA
03:00 13.2 8.4 73 9 7 14.5 101.07     LegendNANA
04:00 13.1 8.3 73 9 7 14.5 101.04     LegendNANA
05:00 11.9 8.2 78 6 6 14.5 101.00     LegendNANA
06:00 11.1 7.9 81 12 6 14.5 101.04     LegendNANA
07:00 12.5 8.5 77 9 6 14.5 101.02     LegendNANA
08:00 13.9 8.7 71 10 7 14.5 101.04     LegendNANA
09:00 14.7 9.7 72 9 7 14.5 101.02     LegendNANA
10:00 15.8 8.6 62 12 11 14.5 100.98     LegendNANA
11:00 16.5 8.3 58 12 11 14.5 100.93     LegendNANA
12:00 17.2 9.2 59 9 13 14.5 100.85     LegendNANA
13:00 17.1 7.6 54 10 13 14.5 100.80     LegendNANA
14:00 15.5 8.7 64 14 17 14.5 100.76     LegendNANA
15:00 15.8 9.4 66 16 9 14.5 100.69     LegendNANA
16:00 15.6 9.2 66 14 7 14.5 100.65     LegendNANA
17:00 16.1 10.1 68 12 9 14.5 100.62     LegendNANA
18:00 16.3 9.3 63 13 11 14.5 100.57     LegendNANA
19:00 15.3 9.7 69 18 7 14.5 100.56     LegendNANA
20:00 15.3 10.4 72 12 17 14.5 100.54     LegendNANA
21:00 15.4 10.8 74 11 11 14.5 100.48     LegendNANA
22:00 15.0 10.4 74 8 11 14.5 100.45     LegendNANA
23:00 15.0 10.7 76 9 9 14.5 100.43     LegendNANA

Notes on Data Quality.

Legend

  • E = Estimated
  • M = Missing
  • NA = Not Available
  • ‡ = Partner data that is not subject to review by the National Climate Archives
Date modified: